When you browse on this site, cookies collect data to enhance your experience and personalize the content and advertising you see.
Visit our Privacy Policy to learn more. By continuing to use the site, you agree to this use of cookies and data.

Meteo pe oră la Sosnowiec

Astăzi, 4 August, Marţi

Timp Temperatura Precipitaţii Vânt Presiune Umiditate
00:00 +19°C° 0.1 mm 1 m/s 731 mmHg 89%
01:00 +19°C° 0 mm 1 m/s 731 mmHg 93%
02:00 +19°C° 0.5 mm 1 m/s 730 mmHg 93%
03:00 +19°C° 0.5 mm 1 m/s 730 mmHg 94%
04:00 +19°C° 0.5 mm 1 m/s 730 mmHg 94%
05:00 +18°C° 3.1 mm 2 m/s 730 mmHg 94%
06:00 +18°C° 3.1 mm 2 m/s 729 mmHg 95%
07:00 +18°C° 3.1 mm 2 m/s 729 mmHg 95%
08:00 +18°C° 1.5 mm 2 m/s 730 mmHg 94%
09:00 +19°C° 1.5 mm 2 m/s 730 mmHg 93%
10:00 +19°C° 1.5 mm 2 m/s 730 mmHg 91%
11:00 +19°C° 0.2 mm 3 m/s 730 mmHg 90%
12:00 +19°C° 0.2 mm 4 m/s 731 mmHg 88%
13:00 +19°C° 0.2 mm 4 m/s 731 mmHg 87%
14:00 +19°C° 0.1 mm 4 m/s 732 mmHg 88%
15:00 +18°C° 0.1 mm 4 m/s 732 mmHg 89%
16:00 +18°C° 0.1 mm 4 m/s 733 mmHg 90%
17:00 +17°C° 0 mm 4 m/s 733 mmHg 91%
18:00 +17°C° 0 mm 4 m/s 734 mmHg 91%
19:00 +16°C° 0 mm 3 m/s 734 mmHg 92%
20:00 +16°C° 0 mm 3 m/s 735 mmHg 91%
21:00 +16°C° 0 mm 2 m/s 735 mmHg 91%
22:00 +16°C° 0 mm 2 m/s 736 mmHg 91%
23:00 +16°C° 0 mm 2 m/s 736 mmHg 91%

Mâine, 5 August, Miercuri

Timp Temperatura Precipitaţii Vânt Presiune Umiditate
00:00 +16°C° 0 mm 2 m/s 736 mmHg 90%
01:00 +16°C° 0 mm 3 m/s 737 mmHg 90%
02:00 +15°C° 0 mm 2 m/s 737 mmHg 89%
03:00 +15°C° 0 mm 2 m/s 737 mmHg 89%
04:00 +15°C° 0 mm 2 m/s 737 mmHg 89%
05:00 +16°C° 0 mm 2 m/s 738 mmHg 85%
06:00 +16°C° 0 mm 3 m/s 738 mmHg 82%
07:00 +17°C° 0 mm 3 m/s 738 mmHg 79%
08:00 +18°C° 0 mm 3 m/s 739 mmHg 72%
09:00 +20°C° 0 mm 3 m/s 739 mmHg 65%
10:00 +21°C° 0 mm 3 m/s 739 mmHg 57%
11:00 +22°C° 0 mm 3 m/s 739 mmHg 56%
12:00 +22°C° 0 mm 3 m/s 739 mmHg 54%
13:00 +24°C° 0 mm 3 m/s 739 mmHg 52%
14:00 +24°C° 0 mm 3 m/s 739 mmHg 53%
15:00 +24°C° 0 mm 3 m/s 739 mmHg 53%
16:00 +24°C° 0 mm 3 m/s 739 mmHg 53%
17:00 +22°C° 0 mm 3 m/s 739 mmHg 58%
18:00 +21°C° 0 mm 3 m/s 739 mmHg 63%
19:00 +20°C° 0 mm 3 m/s 739 mmHg 68%
20:00 +19°C° 0 mm 3 m/s 740 mmHg 71%
21:00 +19°C° 0 mm 3 m/s 740 mmHg 74%
22:00 +18°C° 0 mm 3 m/s 740 mmHg 76%
23:00 +18°C° 0 mm 3 m/s 740 mmHg 79%

Poimâine, 6 August, Joi

Timp Temperatura Precipitaţii Vânt Presiune Umiditate
00:00 +17°C° 0 mm 3 m/s 740 mmHg 82%
01:00 +17°C° 0 mm 3 m/s 740 mmHg 85%
02:00 +17°C° 0 mm 3 m/s 740 mmHg 86%
03:00 +17°C° 0 mm 3 m/s 740 mmHg 86%
04:00 +17°C° 0 mm 3 m/s 740 mmHg 87%
05:00 +18°C° 0 mm 3 m/s 740 mmHg 86%
06:00 +18°C° 0 mm 3 m/s 741 mmHg 84%
07:00 +19°C° 0 mm 4 m/s 741 mmHg 83%
08:00 +20°C° 0 mm 4 m/s 741 mmHg 78%
09:00 +21°C° 0 mm 4 m/s 741 mmHg 74%
10:00 +23°C° 0 mm 4 m/s 741 mmHg 70%
11:00 +25°C° 0 mm 4 m/s 741 mmHg 67%
12:00 +26°C° 0 mm 4 m/s 741 mmHg 64%
13:00 +26°C° 0 mm 4 m/s 741 mmHg 62%
14:00 +26°C° 0 mm 4 m/s 741 mmHg 63%
15:00 +26°C° 0 mm 4 m/s 741 mmHg 65%
16:00 +26°C° 0 mm 3 m/s 741 mmHg 67%
17:00 +25°C° 0 mm 3 m/s 741 mmHg 71%
18:00 +25°C° 0 mm 3 m/s 741 mmHg 74%
19:00 +24°C° 0 mm 3 m/s 741 mmHg 78%
20:00 +22°C° 0 mm 3 m/s 741 mmHg 81%
21:00 +21°C° 0 mm 3 m/s 742 mmHg 84%
22:00 +21°C° 0 mm 3 m/s 742 mmHg 88%
23:00 +20°C° 0 mm 3 m/s 742 mmHg 89%

7 August, Vineri

Timp Temperatura Precipitaţii Vânt Presiune Umiditate
00:00 +20°C° 0 mm 3 m/s 742 mmHg 90%
01:00 +19°C° 0 mm 3 m/s 742 mmHg 91%
02:00 +19°C° 0 mm 3 m/s 742 mmHg 91%
03:00 +19°C° 0 mm 3 m/s 742 mmHg 92%
04:00 +19°C° 0 mm 3 m/s 742 mmHg 92%
05:00 +20°C° 0 mm 3 m/s 742 mmHg 87%
06:00 +21°C° 0 mm 3 m/s 742 mmHg 83%
07:00 +22°C° 0 mm 3 m/s 742 mmHg 78%
08:00 +25°C° 0 mm 3 m/s 743 mmHg 69%
09:00 +27°C° 0 mm 4 m/s 743 mmHg 60%
10:00 +28°C° 0 mm 4 m/s 743 mmHg 51%
11:00 +29°C° 0 mm 4 m/s 743 mmHg 48%
12:00 +30°C° 0 mm 4 m/s 742 mmHg 46%
13:00 +30°C° 0 mm 4 m/s 742 mmHg 43%
14:00 +30°C° 0 mm 4 m/s 742 mmHg 44%
15:00 +30°C° 0 mm 4 m/s 742 mmHg 45%
16:00 +30°C° 0 mm 4 m/s 742 mmHg 46%
17:00 +28°C° 0 mm 3 m/s 741 mmHg 52%
18:00 +27°C° 0 mm 3 m/s 741 mmHg 58%
19:00 +25°C° 0 mm 3 m/s 741 mmHg 65%
20:00 +24°C° 0 mm 2 m/s 741 mmHg 69%
21:00 +23°C° 0 mm 2 m/s 741 mmHg 74%
22:00 +21°C° 0 mm 2 m/s 741 mmHg 78%
23:00 +21°C° 0 mm 2 m/s 741 mmHg 80%

8 August, Sâmbătă

Timp Temperatura Precipitaţii Vânt Presiune Umiditate
00:00 +21°C° 0 mm 2 m/s 741 mmHg 82%
01:00 +20°C° 0 mm 2 m/s 741 mmHg 84%
02:00 +20°C° 0 mm 2 m/s 741 mmHg 86%
03:00 +20°C° 0 mm 2 m/s 741 mmHg 87%
04:00 +19°C° 0 mm 2 m/s 740 mmHg 89%
05:00 +20°C° 0 mm 2 m/s 740 mmHg 85%
06:00 +21°C° 0 mm 2 m/s 741 mmHg 81%
07:00 +24°C° 0 mm 2 m/s 741 mmHg 77%
08:00 +25°C° 0.3 mm 2 m/s 741 mmHg 71%
09:00 +27°C° 0.3 mm 2 m/s 741 mmHg 64%
10:00 +28°C° 0.3 mm 2 m/s 740 mmHg 58%
11:00 +29°C° 0.6 mm 2 m/s 740 mmHg 56%
12:00 +29°C° 0.6 mm 2 m/s 740 mmHg 54%
13:00 +30°C° 0.6 mm 2 m/s 739 mmHg 52%
14:00 +29°C° 1 mm 2 m/s 739 mmHg 54%
15:00 +29°C° 1 mm 3 m/s 739 mmHg 55%
16:00 +29°C° 1 mm 3 m/s 738 mmHg 56%
17:00 +27°C° 0.3 mm 3 m/s 738 mmHg 63%
18:00 +26°C° 0.3 mm 3 m/s 738 mmHg 69%
19:00 +25°C° 0.3 mm 2 m/s 738 mmHg 75%
20:00 +24°C° 0.2 mm 2 m/s 738 mmHg 78%
21:00 +23°C° 0.2 mm 2 m/s 738 mmHg 82%
22:00 +21°C° 0.2 mm 2 m/s 738 mmHg 85%
23:00 +21°C° 0.1 mm 2 m/s 738 mmHg 86%

9 August, Duminică

Timp Temperatura Precipitaţii Vânt Presiune Umiditate
00:00 +20°C° 0.1 mm 2 m/s 738 mmHg 88%
01:00 +20°C° 0.1 mm 2 m/s 738 mmHg 89%
02:00 +20°C° 0.1 mm 2 m/s 737 mmHg 89%
03:00 +20°C° 0.1 mm 1 m/s 737 mmHg 90%
04:00 +20°C° 0.1 mm 1 m/s 737 mmHg 91%
05:00 +21°C° 0.1 mm 1 m/s 737 mmHg 87%
06:00 +22°C° 0.1 mm 1 m/s 737 mmHg 84%
07:00 +23°C° 0.1 mm 2 m/s 737 mmHg 80%
08:00 +24°C° 0.3 mm 2 m/s 737 mmHg 72%
09:00 +26°C° 0.3 mm 2 m/s 737 mmHg 64%
10:00 +27°C° 0.3 mm 2 m/s 737 mmHg 56%
11:00 +27°C° 0 mm 2 m/s 737 mmHg 53%
12:00 +28°C° 0 mm 3 m/s 737 mmHg 50%
13:00 +29°C° 0 mm 3 m/s 737 mmHg 47%
14:00 +28°C° 0 mm 3 m/s 736 mmHg 48%
15:00 +28°C° 0 mm 3 m/s 736 mmHg 49%
16:00 +28°C° 0 mm 3 m/s 736 mmHg 50%
17:00 +27°C° 0 mm 3 m/s 736 mmHg 55%
18:00 +25°C° 0 mm 3 m/s 736 mmHg 61%
19:00 +24°C° 0 mm 2 m/s 736 mmHg 66%
20:00 +23°C° 0 mm 2 m/s 736 mmHg 69%
21:00 +21°C° 0 mm 2 m/s 736 mmHg 71%
22:00 +20°C° 0 mm 2 m/s 736 mmHg 74%
23:00 +21°C° 0 mm 1 m/s 736 mmHg 76%
Arată mai mult